Albany, GA

5:01 AM EST on February 22, 2018 (GMT -0500)
Southwest Georgia Regional

Weather History for KABY - July, 2012

Change the Weather History Date:

Sunday, July 22, 2012

  Actual Average Record
Temperature  
Mean Temperature 86 °F 83 °F  
Max Temperature 99 °F 93 °F 100 °F (2010)
Min Temperature 73 °F 72 °F 60 °F (1991)
Degree Days  
Heating Degree Days 0 0  
Month to date heating degree days 0  
Since 1 June heating degree days 0  
Since 1 July heating degree days 0  
Cooling Degree Days 21 18  
Month to date cooling degree days 427 384  
Year to date cooling degree days 1607 1289  
Since 1 June cooling degree days 869 849  
Growing Degree Days 36 (Base 50)    
Moisture  
Dew Point 69 °F    
Average Humidity 63    
Maximum Humidity 93    
Minimum Humidity 33    
Precipitation  
Precipitation 0.01 in 0.18 in 1.25 in (2006)
Month to date precipitation 1.41 3.95  
Year to date precipitation 13.85 29.25  
Sea Level Pressure  
Sea Level Pressure 30.15 in    
Wind  
Wind Speed 3 mph (SSE)    
Max Wind Speed 25 mph    
Max Gust Speed 32 mph    
Visibility 10 miles    
Events Rain , Thunderstorm    
T = Trace of Precipitation, MM = Missing Value Source: NWS Daily Summary

Daily Weather History Graph

Daily Weather History Graph

Search for Another Location

Airport or City:

Trip Planner

Search our weather history database for the weather conditions in past years. The results will help you decide how hot, cold, wet, or windy it might be!

Date:

Astronomy

Jul. 22, 2012 Rise Set
Actual Time 6:46 AM EDT 8:39 PM EDT
Civil Twilight 6:19 AM EDT 9:06 PM EDT
Nautical Twilight 5:47 AM EDT 9:38 PM EDT
Astronomical Twilight 5:12 AM EDT 10:13 PM EDT
Moon 10:13 AM EDT 10:42 PM EDT
Length of Visible Light 14h 46m
Length of Day
13h 52m
Waxing Crescent, 13% of the Moon is Illuminated
Jul 22
Waxing Crescent
Jul 26
First Quarter
Aug 1
Full
Aug 9
Last Quarter
Aug 17
New

Hourly Weather History & Observations

Time (EDT) Temp. Heat Index Dew Point Humidity Pressure Visibility Wind Dir Wind Speed Gust Speed Precip Events Conditions
12:53 AM 80.1 °F 83.6 °F 71.1 °F 74% 30.12 in 10.0 mi Calm Calm - N/A   Clear
1:53 AM 78.1 °F - 71.1 °F 79% 30.11 in 10.0 mi Calm Calm - N/A   Clear
2:53 AM 77.0 °F - 71.1 °F 82% 30.10 in 10.0 mi Calm Calm - N/A   Clear
3:53 AM 75.9 °F - 71.1 °F 85% 30.10 in 10.0 mi Calm Calm - N/A   Clear
4:53 AM 75.0 °F - 71.1 °F 87% 30.11 in 10.0 mi Calm Calm - N/A   Clear
5:53 AM 73.0 °F - 70.0 °F 90% 30.13 in 10.0 mi Calm Calm - N/A   Clear
6:53 AM 73.9 °F - 71.1 °F 91% 30.15 in 10.0 mi Calm Calm - N/A   Clear
7:53 AM 75.9 °F - 71.1 °F 85% 30.16 in 10.0 mi Calm Calm - N/A   Clear
8:53 AM 80.1 °F 84.2 °F 73.0 °F 79% 30.18 in 10.0 mi Calm Calm - N/A   Clear
9:53 AM 87.1 °F 93.6 °F 72.0 °F 61% 30.19 in 10.0 mi Calm Calm - N/A   Clear
10:53 AM 90.0 °F 94.5 °F 69.1 °F 50% 30.19 in 10.0 mi Calm Calm - N/A   Scattered Clouds
11:53 AM 93.0 °F 99.0 °F 70.0 °F 47% 30.19 in 10.0 mi Variable 6.9 mph - N/A   Scattered Clouds
12:53 PM 93.0 °F 96.4 °F 66.9 °F 42% 30.18 in 10.0 mi Calm Calm - N/A   Scattered Clouds
1:53 PM 95.0 °F 99.0 °F 66.9 °F 40% 30.17 in 10.0 mi SSW 5.8 mph - N/A   Mostly Cloudy
2:53 PM 97.0 °F 100.4 °F 66.0 °F 36% 30.14 in 10.0 mi Variable 5.8 mph - N/A   Overcast
3:53 PM 96.1 °F 99.9 °F 66.9 °F 38% 30.13 in 10.0 mi SE 6.9 mph - N/A   Mostly Cloudy
4:53 PM 98.1 °F 100.7 °F 64.0 °F 33% 30.10 in 10.0 mi Variable 5.8 mph - N/A   Clear
5:53 PM 95.0 °F 99.5 °F 68.0 °F 41% 30.11 in 10.0 mi SE 12.7 mph - N/A   Mostly Cloudy
6:53 PM 96.1 °F 99.9 °F 66.9 °F 38% 30.12 in 10.0 mi SSE 8.1 mph - N/A   Clear
7:53 PM 93.9 °F 99.1 °F 69.1 °F 44% 30.14 in 10.0 mi South 6.9 mph - N/A   Partly Cloudy
8:53 PM 89.1 °F 94.1 °F 70.0 °F 53% 30.14 in 10.0 mi South 4.6 mph - N/A   Clear
9:28 PM 87.8 °F 92.6 °F 69.8 °F 55% 30.18 in 10.0 mi South 8.1 mph - N/A Thunderstorm Thunderstorm
9:53 PM 81.0 °F 83.3 °F 66.9 °F 62% 30.21 in 10.0 mi SE 13.8 mph - N/A Thunderstorm Thunderstorm
10:33 PM 77.0 °F - 69.8 °F 78% 30.21 in 10.0 mi SW 5.8 mph - 0.01 in Rain Light Rain
10:53 PM 75.9 °F - 69.1 °F 79% 30.19 in 10.0 mi Calm Calm - 0.01 in   Partly Cloudy
11:53 PM 75.9 °F - 69.1 °F 79% 30.19 in 10.0 mi North 4.6 mph - N/A   Clear